Location: ?????
(60.6331°N, 46.9228°E)
Time: 07:31:14
(UTC+00:00)

Daily predictions for brighter satellites

Satellite Brightness Start Highest point End
(mag) Time Altitude Azimuth Time Altitude Azimuth Time Altitude Azimuth
Cosmos 304 Rocket 4.3 19:11:18 10° S 19:15:47 41° ESE 19:20:18 10° NE
Meteor 2-4 Rocket 4.3 19:10:53 10° SW 19:16:09 56° WNW 19:21:28 10° NNE
Meteor 1-23 Rocket 4.3 19:12:02 10° S 19:17:44 76° ESE 19:23:24 10° NNE
ERBS 3.7 19:16:18 10° SSW 19:18:40 18° SSE 19:21:04 10° E
SeaSat 1 3.2 19:15:03 10° NE 19:19:35 34° ESE 19:24:04 10° S
Cosmos 2297 Rocket 4.0 19:15:11 10° NW 19:20:17 33° NNE 19:25:22 10° E
Lacrosse 4 Rocket 3.7 19:16:40 10° WNW 19:20:43 32° N 19:24:42 10° ENE
NOSS 3-2 (A) 4.1 19:14:44 10° WNW 19:21:42 62° SW 19:29:40 10° SE
Cosmos 332 Rocket 3.9 19:17:23 10° SSW 19:22:14 61° ESE 19:27:05 10° NE
Cosmos 1953 3.7 19:19:20 10° N 19:22:59 32° ENE 19:26:36 10° SE
Aureole 2 Rocket 3.2 19:20:20 10° S 19:23:06 29° ESE 19:25:47 10° NE
Cosmos 1340 Rocket 4.3 19:19:40 10° N 19:23:15 29° ENE 19:26:49 10° ESE
Cosmos 2084 Rocket 3.6 19:22:19 10° WSW 19:26:41 88° NNW 19:31:09 10° ENE
Cosmos 1733 3.4 19:24:00 10° NNW 19:27:51 71° W 19:31:40 10° S
USA 238 DEB 4.1 19:22:42 10° WNW 19:29:37 58° SW 19:36:48 10° SSE
USA 238 4.1 19:22:47 10° WNW 19:29:42 58° SW 19:36:54 10° SSE
ALOS 2 3.0 19:25:58 10° SE 19:30:17 61° ENE 19:34:39 10° NNW
Cosmos 968 Rocket 3.6 19:26:46 10° NNW 19:32:00 79° NE 19:37:10 10° SE
Cosmos 1110 Rocket 4.4 19:27:09 10° S 19:32:04 46° ESE 19:37:01 10° NE
Cosmos 1758 3.7 19:28:24 10° N 19:32:23 58° ENE 19:36:24 10° SSE
Cosmos 1544 Rocket 3.6 19:28:15 10° NNW 19:32:37 73° ENE 19:36:57 10° SSE
SJ 16-02 4.1 19:30:23 10° NNW 19:33:20 17° NNE 19:36:16 10° ENE
SL-4 R/B 0.7 19:31:10 10° SSE 19:33:21 62° ENE 19:35:34 10° NNW
Cosmos 2263 Rocket 4.5 19:28:25 10° WNW 19:33:25 30° N 19:38:23 10° NE
Cosmos 1553 Rocket 4.2 19:28:10 10° NNW 19:34:35 74° ENE 19:40:51 10° SSE
Cosmos 1707 4.5 19:31:38 10° SE 19:34:35 21° E 19:37:33 10° NE
Cosmos 1867 3.7 19:29:56 10° WNW 19:35:27 90° NE 19:40:56 10° ESE
Cosmos 2297 4.1 19:31:22 10° S 19:36:48 47° ESE 19:42:17 10° NE
Cosmos 1242 Rocket 4.0 19:33:58 10° SSE 19:37:03 26° E 19:40:10 10° NE
Cosmos 1354 Rocket 4.4 19:32:15 10° NNW 19:37:32 66° NE 19:42:49 10° SE
Cosmos 1461 4.0 19:36:02 10° S 19:39:38 27° SE 19:43:23 10° ENE
Cosmos 2082 Rocket 4.0 19:37:53 10° NW 19:42:07 22° WSW 19:46:19 10° SSW
Cosmos 1486 Rocket 4.1 19:39:36 10° NW 19:44:57 77° WSW 19:50:15 10° SSE
Cosmos 2026 Rocket 4.2 19:40:55 10° S 19:47:07 68° E 19:53:27 10° NNE
Terra 3.6 19:44:57 10° SW 19:48:53 25° W 19:52:51 10° NW
Lacrosse 5 4.0 19:47:43 10° WSW 19:49:39 12° SW 19:51:34 10° SSW
Cosmos 1674 Rocket 4.5 19:46:15 10° SW 19:50:31 49° WNW 19:54:50 10° N
Cosmos 1331 Rocket 4.2 19:49:49 10° SSW 19:54:52 58° ESE 19:59:59 10° NE
STARLINK-1234 4.3 19:52:36 10° SW 19:55:01 20° S 19:57:25 10° SE
Cosmos 1470 2.8 19:52:13 10° NNW 19:56:09 82° WSW 20:00:01 10° S
Cosmos 2227 Rocket 3.8 19:51:06 10° NW 19:56:21 37° NNE 20:01:37 10° E
STARLINK-1212 4.2 19:53:59 10° SW 19:56:23 20° S 19:58:47 10° SE
STARLINK-1105 4.2 19:54:27 10° SW 19:56:50 20° S 19:59:12 10° SE
Spot 4 4.3 19:52:16 10° S 19:57:04 56° WSW 20:01:52 10° NNW
Cosmos 1378 Rocket 4.3 19:53:01 10° SSW 19:57:20 52° WNW 20:01:40 10° N
STARLINK-1247 4.2 19:55:21 10° SW 19:57:44 20° S 20:00:09 10° SE
STARLINK-1227 4.2 19:55:48 10° SW 19:58:11 20° S 20:00:34 10° SE
STARLINK-1226 4.2 19:56:40 10° SW 19:59:04 20° S 20:01:29 10° SE
EO 1 Del DPAF 3.2 19:55:43 10° NNE 19:59:32 77° ESE 20:03:19 10° SSW
STARLINK-1215 4.2 19:57:34 10° SW 20:00:00 20° S 20:02:24 10° SE
STARLINK-1209 4.3 19:57:32 10° SW 20:00:00 21° S 20:02:27 10° SE
Nadezhda 4 Rocket 4.4 19:54:58 10° SSW 20:01:04 63° WNW 20:07:11 10° N
STARLINK-1217 4.2 19:59:21 10° SW 20:01:45 20° S 20:04:10 10° SE
NOSS 2-3 (E) 4.2 19:57:36 10° WSW 20:02:24 87° NNW 20:08:36 10° ENE
STARLINK-1229 4.2 20:00:15 10° SW 20:02:39 20° S 20:05:04 10° SE
STARLINK-1270 4.2 20:01:07 10° SW 20:03:32 20° S 20:05:57 10° SE
STARLINK-1228 4.3 20:01:02 10° WSW 20:03:41 22° S 20:06:21 10° SE
Cosmos 2369 Rocket 3.2 20:00:14 10° S 20:05:11 32° ESE 20:10:08 10° NE
STARLINK-1189 4.2 20:02:55 10° SW 20:05:20 20° S 20:07:45 10° SE
STARLINK-1238 4.5 20:02:20 10° SW 20:05:52 28° S 20:09:26 10° ESE
STARLINK-1188 4.2 20:03:50 10° SW 20:06:14 20° S 20:08:39 10° SE
STARLINK-1235 4.3 20:04:27 10° SW 20:06:48 20° S 20:09:09 10° SE
STARLINK-1187 4.2 20:04:55 10° SW 20:07:16 20° S 20:09:38 10° SE
Aureole 3 Rocket 3.9 20:02:51 10° NNW 20:07:32 69° W 20:14:09 10° S
Timation 2 Rocket 4.4 20:01:59 10° NW 20:08:32 67° NE 20:14:46 10° ESE
Cosmos 1975 Rocket 3.1 20:04:06 10° SSW 20:08:34 89° WNW 20:13:02 10° NNE
STARLINK-1191 4.2 20:06:18 10° SW 20:08:40 20° S 20:11:03 10° SE
Cosmos 371 Rocket 3.9 20:04:40 10° SW 20:09:30 61° NW 20:14:23 10° NNE
STARLINK-1221 4.2 20:07:09 10° SW 20:09:31 20° S 20:11:54 10° SE
Thor Agena Rocket 3.7 20:04:13 10° NNE 20:09:34 87° ESE 20:14:53 10° SSW
STARLINK-1222 4.2 20:08:04 10° SW 20:10:26 20° S 20:12:48 10° SE
STARLINK-1201 4.5 20:07:15 10° SW 20:10:49 28° S 20:14:23 10° ESE
STARLINK-1214 4.2 20:08:56 10° SW 20:11:18 20° S 20:13:41 10° SE
Cosmos 1378 3.8 20:08:02 10° SSW 20:11:41 53° WNW 20:15:22 10° N
Cosmos 1908 4.3 20:08:35 10° N 20:12:13 39° ENE 20:15:50 10° SE
YAOGAN 11 4.3 20:07:59 10° SSE 20:12:20 71° ENE 20:16:40 10° NNW
Cosmos 1943 Rocket 2.7 20:07:12 10° S 20:12:24 43° ESE 20:17:41 10° NE
STARLINK-1206 4.5 20:12:11 10° SW 20:15:46 28° S 20:19:21 10° ESE
NOSS 5 (C) 4.1 20:14:13 10° WNW 20:17:11 67° SSW 20:20:28 10° SE
Meteor 1-21 4.3 20:11:38 10° S 20:17:16 71° ESE 20:22:53 10° NNE
BREEZE-M DEB (TANK) 4.4 20:15:20 10° SW 20:17:48 17° S 20:20:29 10° SE
USA 215 4.4 20:13:50 10° S 20:19:09 26° SW 20:24:29 10° W
Cosmos 1452 Rocket 4.2 20:14:28 10° SW 20:19:41 57° NW 20:24:56 10° NNE
STARLINK-1205 4.5 20:17:07 10° SW 20:20:43 29° S 20:24:18 10° ESE
NOSS 2-3 (D) 4.3 20:17:36 10° WSW 20:22:27 81° NNW 20:28:42 10° ENE
OPS 8737 4.5 20:19:34 10° W 20:22:29 64° NNW 20:25:22 10° ENE
SL-16 R/B 4.1 20:17:09 10° ESE 20:22:33 33° NE 20:27:57 10° NNW
Cosmos 1842 3.4 20:19:40 10° SSW 20:23:36 75° WNW 20:27:31 10° NNE
Cosmos 2278 Rocket 3.0 20:18:14 10° WSW 20:23:49 55° NW 20:29:26 10° NE
Okean 2 3.8 20:19:45 10° SSW 20:23:52 62° WNW 20:28:02 10° N
STARLINK-1218 4.5 20:22:02 10° WSW 20:25:37 29° S 20:29:13 10° ESE
SL-27 R/B 3.7 20:22:51 10° NW 20:26:05 30° WSW 20:29:15 10° S
NOSS 3-2 (C) 4.4 20:20:10 10° WNW 20:27:00 48° SW 20:34:46 10° SSE
GEOS 3 Rocket 3.7 20:22:55 10° SE 20:28:10 72° SW 20:33:32 10° WNW
NOSS 2-2 (D) 4.1 20:25:37 10° SSW 20:29:01 34° SE 20:33:01 10° ENE
ATLAS 5 CENTAUR R/B 3.2 20:29:26 10° SSE 20:30:01 11° SE 20:30:38 10° SE
STARLINK-1254 4.4 20:26:59 10° WSW 20:30:34 29° S 20:34:10 10° ESE
Helios 1A 3.1 20:29:54 10° S 20:34:02 68° WSW 20:38:14 10° NNW
USA 229 DEB 4.1 20:27:23 10° W 20:34:13 74° N 20:41:30 10° ENE
Cosmos 1455 Rocket 4.4 20:30:28 10° NNW 20:34:19 31° W 20:38:08 10° SSW
USA 229 4.1 20:27:31 10° W 20:34:20 74° N 20:41:36 10° ENE
STARLINK-1231 4.4 20:31:57 10° WSW 20:35:32 29° S 20:39:08 10° ESE
Cosmos 1726 2.1 20:32:01 10° NNW 20:35:44 76° WSW 20:39:19 11° S
COSMOS 2487 2.4 20:35:27 10° NNW 20:38:58 79° WSW 20:42:25 10° SSE
STARLINK-1232 4.4 20:36:53 10° WSW 20:40:28 29° S 20:44:05 10° ESE
Helios 1B rocket 3.9 20:37:35 10° NE 20:41:07 26° E 20:44:37 10° SSE
ATLAS 3B R/B 2.7 20:34:34 10° WNW 20:41:12 65° SW 20:48:02 10° SE
NOSS 3-1 (C) 4.1 20:35:20 10° W 20:41:36 72° N 20:49:08 10° E
NOSS 3-1 (A) 4.0 20:36:50 10° W 20:43:02 75° NNW 20:50:29 10° ENE
CENTAUR R/B 3.5 20:36:23 10° WNW 20:43:42 48° SW 20:51:50 10° SSE
Cosmos 2315 Rocket 4.1 20:37:29 10° NNW 20:43:45 84° ENE 20:49:59 10° SSE
STARLINK-1208 4.4 20:41:49 10° WSW 20:45:25 29° S 20:49:01 10° ESE
Cosmos 1726 Rocket 3.9 20:42:43 10° N 20:47:03 63° ENE 20:51:20 10° SSE
NOSS 2-2 (E) 3.7 20:43:56 10° SW 20:47:36 50° SE 20:52:09 10° ENE
Cosmos 1025 Rocket 3.0 20:44:55 10° S 20:49:12 86° ESE 20:53:32 10° NNE
STARLINK-1271 4.5 20:46:47 10° WSW 20:50:21 29° S 20:53:57 10° ESE
Cosmos 2219 3.8 20:45:22 10° NW 20:51:03 61° NE 20:56:40 10° ESE
COSMOS 2455 4.3 20:49:29 10° SSE 20:54:04 23° ESE 20:58:41 10° ENE
ERBS 2.7 20:51:16 10° WSW 20:54:23 39° SSE 20:57:32 10° E
Cosmos 1300 3.9 20:50:49 10° N 20:54:27 39° ENE 20:58:02 10° SE
Cosmos 1656 Rocket 4.5 20:50:03 10° S 20:55:10 37° ESE 21:00:15 10° NE
STARLINK-1154 4.5 20:51:45 10° WSW 20:55:19 29° S 20:58:55 10° SE
NOSS 8 (E) 4.1 20:52:55 10° SW 20:55:57 72° SSE 20:59:18 10° ENE
Aureole 2 Rocket 3.5 20:53:48 10° WSW 20:56:44 37° NW 20:59:33 10° NNE
SeaSat 1 2.7 20:52:31 10° NE 20:57:28 72° NW 21:02:24 10° SW
Cosmos 1777 Rocket 4.0 20:52:42 10° NW 20:57:58 87° WSW 21:03:13 10° SSE
ATLAS CENTAUR R/B 1.5 20:56:47 10° WSW 20:58:31 27° S 21:01:01 10° SE
Cosmos 1953 3.0 20:55:42 10° NNW 20:59:33 44° W 21:03:19 10° SSW
In-Cosmos 22 4.3 20:54:34 10° S 20:59:48 63° E 21:05:03 10° NNE
Cosmos 1340 Rocket 3.3 20:56:01 10° NNW 20:59:55 51° W 21:03:46 11° S
STARLINK-1197 4.5 20:56:41 10° WSW 21:00:15 28° S 21:03:50 10° SE
Lacrosse 4 Rocket 3.1 20:56:05 10° NW 21:00:19 40° NNE 21:04:27 10° E
Cosmos 1271 Rocket 2.9 20:58:26 10° SSW 21:02:17 75° WNW 21:06:15 10° NNE
Meteor 1-16 Rocket 4.5 20:57:51 10° NNW 21:03:27 59° W 21:08:50 10° S
Aureole 3 3.5 21:01:06 10° NNW 21:05:07 53° W 21:08:16 11° S
STARLINK-1198 4.5 21:01:37 10° WSW 21:05:10 28° S 21:08:45 10° SE
Cosmos 2297 Rocket 2.8 20:59:41 10° NW 21:05:20 62° NE 21:10:57 10° ESE
Cosmos 2084 Rocket 4.0 21:02:05 10° W 21:06:27 65° N 21:10:54 10° E
ALOS 2 4.0 21:03:11 10° SSW 21:06:58 28° W 21:10:46 10° NNW
Cosmos 1626 4.0 21:04:31 10° SE 21:07:28 22° E 21:10:26 10° NE
Cosmos 1536 Rocket 3.7 21:03:51 10° SSW 21:08:11 76° WNW 21:12:34 10° NNE
Cosmos 2228 3.0 21:05:39 10° NNW 21:09:57 77° WSW 21:14:11 10° S
Cosmos 1707 3.0 21:06:13 10° SSW 21:10:06 66° WNW 21:14:01 10° N
STARLINK-1199 4.5 21:06:35 10° WSW 21:10:08 28° S 21:13:42 10° SE
NOSS 2-2 (C) 3.5 21:06:54 10° SW 21:10:35 57° SE 21:15:08 10° ENE
Cosmos 1242 Rocket 3.4 21:08:11 10° SW 21:11:45 47° WNW 21:15:21 10° N
ATLAS 2AS CENTAUR R/B 3.7 21:04:49 10° S 21:12:08 41° SE 21:19:18 10° ENE
SJ 16-02 2.7 21:08:52 10° NNW 21:13:05 41° NE 21:17:18 10° ESE
Cosmos 1655 Rocket 4.1 21:06:54 10° SSW 21:13:08 77° WNW 21:19:27 10° NNE
Cosmos 2058 Rocket 3.3 21:08:43 10° NNW 21:13:09 73° ENE 21:17:34 10° SSE
STARLINK-1210 4.5 21:11:33 10° WSW 21:15:06 28° S 21:18:39 10° SE
Cosmos 1461 3.0 21:14:01 10° SW 21:18:19 88° SSE 21:22:52 10° ENE
Cosmos 1867 4.4 21:13:46 10° WNW 21:18:40 35° SW 21:23:33 10° S
Cosmos 2263 Rocket 4.3 21:13:44 10° NW 21:18:50 33° NNE 21:23:54 10° E
Cosmos 2297 4.3 21:15:18 10° WSW 21:20:58 60° NW 21:26:40 10° NE
Cosmos 292 Rocket 3.9 21:24:22 10° SSW 21:29:14 87° NW 21:34:09 10° NNE
Cosmos 1674 2.7 21:25:54 10° S 21:29:36 73° E 21:33:24 10° NNE
Cosmos 2292 Rocket 3.3 21:26:43 10° SSW 21:30:49 68° WNW 21:34:07 10° N
Nadezhda 1 Rocket 4.3 21:26:48 10° NNW 21:32:57 68° ENE 21:39:08 10° SSE
Okean 1-7 Rocket 4.3 21:29:07 10° SSE 21:33:23 46° E 21:37:44 10° NNE
SL-4 R/B 4.3 21:31:39 10° S 21:34:01 14° SSE 21:36:22 10° ESE
Cosmos 1455 4.0 21:32:57 10° N 21:36:17 28° ENE 21:39:34 10° ESE
Cosmos 1606 Rocket 4.1 21:32:51 10° NNW 21:37:01 46° W 21:41:09 10° SSW
STARLINK-1143 4.5 21:34:07 10° SW 21:37:41 28° S 21:41:17 10° ESE
CZ-2D R/B 3.8 21:35:17 10° NNE 21:39:40 25° E 21:43:59 10° SE
Cosmos 2227 Rocket 2.4 21:35:26 10° NW 21:41:11 80° NE 21:46:53 10° SE
STARLINK-1241 4.5 21:39:03 10° WSW 21:42:37 29° S 21:46:14 10° ESE
Resurs 1-4 Rocket 3.6 21:42:04 10° NNE 21:46:39 29° E 21:51:13 10° SSE
STARLINK-1239 4.5 21:43:59 10° WSW 21:47:35 29° S 21:51:11 10° ESE
Cosmos 1898 Rocket 4.0 21:42:14 10° NNW 21:47:36 67° NE 21:52:55 10° SE
Cosmos 2098 Rocket 4.5 21:40:40 10° SSW 21:47:38 85° WNW 21:55:13 10° NNE
Cosmos 1908 4.3 21:44:34 10° NNW 21:48:02 32° W 21:51:28 10° SSW
Cosmos 2369 Rocket 2.3 21:43:06 10° SW 21:48:49 81° NW 21:54:30 10° NE
Cosmos 1812 Rocket 4.2 21:46:13 10° N 21:50:41 58° ENE 21:55:07 10° SSE
ATLAS CENTAUR R/B 2.7 21:47:12 10° S 21:50:46 26° SE 21:54:10 10° ENE
STARLINK-1240 4.5 21:48:56 10° WSW 21:52:31 29° S 21:56:08 10° ESE
Meteor 1-24 Rocket 4.0 21:48:39 10° S 21:53:53 62° E 21:59:17 10° NNE
Timation 2 Rocket 4.4 21:49:46 10° NW 21:55:55 47° WSW 22:01:48 10° S
Cosmos 1943 Rocket 2.6 21:50:31 10° WSW 21:56:03 64° NW 22:01:40 10° NE
Cosmos 1937 Rocket 4.1 21:51:20 10° NNW 21:56:31 61° NE 22:01:43 10° SE
STARLINK-1216 4.5 21:53:52 10° WSW 21:57:27 29° S 22:01:04 10° ESE
PSLV R/B 3.8 21:55:30 10° NNE 22:00:12 82° WNW 22:04:44 10° SSW
Meteor 1-29 3.0 21:57:35 10° NNE 22:01:01 81° ESE 22:04:24 10° SSW
Cosmos 2266 Rocket 4.5 21:56:13 10° SW 22:02:12 53° WNW 22:08:08 10° N
STARLINK-1237 4.5 21:58:49 10° WSW 22:02:24 29° S 22:06:01 10° ESE
SL-16 R/B 2.6 21:59:29 10° SSE 22:05:41 87° WSW 22:11:55 10° NNW
STARLINK-1202 4.5 22:03:46 10° WSW 22:07:22 29° S 22:10:58 10° ESE
UNK 3.8 22:04:11 10° SSE 22:08:48 88° ENE 22:13:26 10° NNW
Cosmos 2278 Rocket 4.2 22:03:57 10° WNW 22:09:01 31° NNW 22:14:05 10° NE
CZ-4 R/B 4.1 22:04:43 10° NNE 22:09:36 69° WNW 22:14:20 10° SSW
RESURS DK-1 3.7 22:06:16 10° S 22:09:54 30° ESE 22:13:32 10° NE
Cosmos 1356 Rocket 3.5 22:06:09 10° NNW 22:10:16 70° WSW 22:14:26 10° S
Cosmos 1726 4.5 22:08:40 10° NW 22:10:18 13° W 22:11:54 10° WSW
KORONAS-FOTON 4.3 22:06:32 10° SSW 22:10:18 54° WNW 22:14:07 10° N
Meteor 2-5 Rocket 3.8 22:05:17 10° SSW 22:10:51 87° WNW 22:16:32 10° NNE
Meteor 2-10 Rocket 3.9 22:05:32 10° NNW 22:11:00 72° ENE 22:16:13 10° SSE
Cosmos-2242 4.1 22:07:05 10° N 22:11:14 45° ENE 22:15:21 10° SE
MOZ.5/SAFIR/RUBIN 5/SL-8 3.8 22:08:01 10° S 22:12:39 72° WSW 22:17:19 10° NNW
Cosmos 1992 Rocket 4.3 22:07:50 10° SW 22:13:02 68° NW 22:18:16 10° NNE
Cosmos 1745 Rocket 4.3 22:09:49 10° S 22:15:53 64° E 22:21:57 10° NNE
GP-B 4.4 22:11:45 10° N 22:15:55 38° E 22:20:05 10° SSE
Helios 1B rocket 2.8 22:12:36 10° NNE 22:16:42 59° WNW 22:20:46 10° SW
NOSS 2-2 (D) 3.7 22:15:19 10° WSW 22:19:14 80° NNW 22:24:16 10° ENE
CZ-4C R/B 3.6 22:16:08 10° S 22:20:23 67° WSW 22:24:49 10° NNW
APEX 4.3 22:14:21 10° SW 22:20:37 78° NW 22:25:38 10° NE
Cosmos 1892 Rocket 3.8 22:18:25 10° SSW 22:22:49 68° WNW 22:27:13 10° N
USA 229 DEB 4.1 22:18:44 10° WNW 22:25:43 78° NNE 22:33:09 10° ESE
USA 229 4.1 22:18:51 10° WNW 22:25:50 78° NNE 22:33:15 10° ESE
